Time,TemperatureF,DewpointF,PressureIn,WindDirection,WindDirectionDegrees,WindSpeedMPH,WindSpeedGustMPH,Humidity,HourlyPrecipIn,Conditions,Clouds,dailyrainin,SoftwareType,DateUTC
2013-05-23 00:00:00,79.0,73.0,29.90,ESE,122,0.0,0.0,82,0.00,,,0.00,Wunderground v.1.15,2013-05-23 05:00:00,
2013-05-23 00:05:00,78.8,72.8,29.90,ESE,120,0.0,0.0,82,0.00,,,0.00,Wunderground v.1.15,2013-05-23 05:05:00,
2013-05-23 00:15:00,78.4,72.8,29.90,SE,131,0.0,0.0,83,0.00,,,0.00,Wunderground v.1.15,2013-05-23 05:15:00,
2013-05-23 00:24:00,78.0,72.8,29.90,ESE,110,0.0,0.0,84,0.00,,,0.00,Wunderground v.1.15,2013-05-23 05:24:00,
2013-05-23 00:30:00,77.8,72.6,29.90,ESE,110,0.0,0.0,84,0.00,,,0.00,Wunderground v.1.15,2013-05-23 05:30:00,
2013-05-23 00:40:00,77.3,72.4,29.90,ESE,110,0.0,0.0,85,0.00,,,0.00,Wunderground v.1.15,2013-05-23 05:40:00,
2013-05-23 00:50:00,76.7,72.2,29.90,ESE,110,0.0,0.0,86,0.00,,,0.00,Wunderground v.1.15,2013-05-23 05:50:00,
2013-05-23 00:59:00,76.4,72.2,29.90,ESE,120,0.0,0.0,87,0.00,,,0.00,Wunderground v.1.15,2013-05-23 05:59:00,
2013-05-23 01:10:00,76.2,72.4,29.90,ESE,120,0.0,0.0,88,0.00,,,0.00,Wunderground v.1.15,2013-05-23 06:10:00,
2013-05-23 01:19:00,76.0,72.2,29.90,ESE,122,0.0,0.0,88,0.00,,,0.00,Wunderground v.1.15,2013-05-23 06:19:00,
2013-05-23 01:25:00,75.9,72.1,29.90,ESE,121,0.0,0.0,88,0.00,,,0.00,Wunderground v.1.15,2013-05-23 06:25:00,
2013-05-23 01:34:00,75.7,72.2,29.90,ESE,121,0.0,0.0,89,0.00,,,0.00,Wunderground v.1.15,2013-05-23 06:34:00,
2013-05-23 01:45:00,75.5,72.0,29.90,ESE,120,0.0,0.0,89,0.00,,,0.00,Wunderground v.1.15,2013-05-23 06:45:00,
2013-05-23 01:54:00,75.5,72.0,29.89,ESE,122,0.0,0.0,89,0.00,,,0.00,Wunderground v.1.15,2013-05-23 06:54:00,
2013-05-23 02:00:00,75.4,72.3,29.89,ESE,119,0.0,0.0,90,0.00,,,0.00,Wunderground v.1.15,2013-05-23 07:00:00,
2013-05-23 02:09:00,75.3,72.2,29.89,ESE,119,0.0,0.0,90,0.00,,,0.00,Wunderground v.1.15,2013-05-23 07:09:00,
2013-05-23 02:20:00,75.2,72.1,29.89,East,93,0.0,0.0,90,0.00,,,0.00,Wunderground v.1.15,2013-05-23 07:20:00,
2013-05-23 02:29:00,75.0,72.2,29.89,SE,124,0.0,1.0,91,0.00,,,0.00,Wunderground v.1.15,2013-05-23 07:29:00,
2013-05-23 02:35:00,74.9,72.1,29.89,SE,124,0.0,1.0,91,0.00,,,0.00,Wunderground v.1.15,2013-05-23 07:35:00,
2013-05-23 02:45:00,74.7,71.9,29.88,SE,124,0.0,0.0,91,0.00,,,0.00,Wunderground v.1.15,2013-05-23 07:45:00,
2013-05-23 03:00:00,74.6,72.1,29.88,SE,125,0.0,0.0,92,0.00,,,0.00,Wunderground v.1.15,2013-05-23 08:00:00,
2013-05-23 03:10:00,74.7,72.2,29.88,SE,127,1.0,1.0,92,0.00,,,0.00,Wunderground v.1.15,2013-05-23 08:10:00,
2013-05-23 03:20:00,74.8,72.3,29.88,East,98,1.0,1.0,92,0.00,,,0.00,Wunderground v.1.15,2013-05-23 08:20:00,
2013-05-23 03:30:00,74.8,72.3,29.88,NE,39,1.0,1.0,92,0.00,,,0.00,Wunderground v.1.15,2013-05-23 08:30:00,
2013-05-23 03:39:00,74.8,72.3,29.88,SE,135,0.0,0.0,92,0.00,,,0.00,Wunderground v.1.15,2013-05-23 08:39:00,
2013-05-23 03:50:00,74.9,72.4,29.88,SE,139,1.0,1.0,92,0.00,,,0.00,Wunderground v.1.15,2013-05-23 08:50:00,
2013-05-23 03:59:00,74.8,72.3,29.88,SE,143,0.0,0.0,92,0.00,,,0.00,Wunderground v.1.15,2013-05-23 08:59:00,
2013-05-23 04:05:00,74.8,72.3,29.88,SE,136,0.0,1.0,92,0.00,,,0.00,Wunderground v.1.15,2013-05-23 09:05:00,
2013-05-23 04:14:00,74.7,72.2,29.88,SE,129,0.0,0.0,92,0.00,,,0.00,Wunderground v.1.15,2013-05-23 09:14:00,
2013-05-23 04:20:00,74.7,72.2,29.88,SE,137,0.0,0.0,92,0.00,,,0.00,Wunderground v.1.15,2013-05-23 09:20:00,
2013-05-23 04:30:00,74.6,72.1,29.88,SSE,150,0.0,0.0,92,0.00,,,0.00,Wunderground v.1.15,2013-05-23 09:30:00,
2013-05-23 04:40:00,74.6,72.1,29.89,SE,127,0.0,0.0,92,0.00,,,0.00,Wunderground v.1.15,2013-05-23 09:40:00,
2013-05-23 04:49:00,74.6,72.1,29.89,SE,141,0.0,0.0,92,0.00,,,0.00,Wunderground v.1.15,2013-05-23 09:49:00,
2013-05-23 04:55:00,74.7,72.2,29.89,SE,139,0.0,0.0,92,0.00,,,0.00,Wunderground v.1.15,2013-05-23 09:55:00,
2013-05-23 05:04:00,74.7,72.2,29.89,SE,140,0.0,0.0,92,0.00,,,0.00,Wunderground v.1.15,2013-05-23 10:04:00,
2013-05-23 05:15:00,74.6,72.1,29.89,SSE,148,0.0,1.0,92,0.00,,,0.00,Wunderground v.1.15,2013-05-23 10:15:00,
2013-05-23 05:24:00,74.6,72.1,29.89,ESE,102,0.0,1.0,92,0.00,,,0.00,Wunderground v.1.15,2013-05-23 10:24:00,
2013-05-23 05:30:00,74.6,71.8,29.89,ESE,115,0.0,0.0,91,0.00,,,0.00,Wunderground v.1.15,2013-05-23 10:30:00,
2013-05-23 05:39:00,74.8,72.0,29.90,SSE,148,0.0,0.0,91,0.00,,,0.00,Wunderground v.1.15,2013-05-23 10:39:00,
2013-05-23 05:50:00,74.7,71.9,29.90,ESE,103,0.0,0.0,91,0.00,,,0.00,Wunderground v.1.15,2013-05-23 10:50:00,
2013-05-23 05:59:00,74.7,71.9,29.90,ESE,111,0.0,0.0,91,0.00,,,0.00,Wunderground v.1.15,2013-05-23 10:59:00,
2013-05-23 06:10:00,74.7,71.9,29.91,SSE,153,0.0,0.0,91,0.00,,,0.00,Wunderground v.1.15,2013-05-23 11:10:00,
2013-05-23 06:19:00,74.7,71.6,29.91,SSE,150,1.0,1.0,90,0.00,,,0.00,Wunderground v.1.15,2013-05-23 11:19:00,
2013-05-23 06:25:00,74.8,71.7,29.91,SSE,150,1.0,1.0,90,0.00,,,0.00,Wunderground v.1.15,2013-05-23 11:25:00,
2013-05-23 06:34:00,74.8,71.7,29.91,East,101,0.0,0.0,90,0.00,,,0.00,Wunderground v.1.15,2013-05-23 11:34:00,
2013-05-23 06:45:00,74.8,71.7,29.92,ESE,105,0.0,1.0,90,0.00,,,0.00,Wunderground v.1.15,2013-05-23 11:45:00,
2013-05-23 06:54:00,74.8,71.7,29.92,ESE,122,0.0,1.0,90,0.00,,,0.00,Wunderground v.1.15,2013-05-23 11:54:00,
2013-05-23 07:05:00,74.8,71.7,29.92,SE,145,1.0,1.0,90,0.00,,,0.00,Wunderground v.1.15,2013-05-23 12:05:00,
2013-05-23 07:14:00,74.9,71.8,29.93,ESE,120,1.0,1.0,90,0.00,,,0.00,Wunderground v.1.15,2013-05-23 12:14:00,
2013-05-23 07:20:00,75.0,71.9,29.93,ESE,120,1.0,2.0,90,0.00,,,0.00,Wunderground v.1.15,2013-05-23 12:20:00,
2013-05-23 07:29:00,75.1,71.6,29.93,ESE,122,1.0,1.0,89,0.00,,,0.00,Wunderground v.1.15,2013-05-23 12:29:00,
2013-05-23 07:40:00,75.2,71.7,29.94,SE,135,0.0,0.0,89,0.00,,,0.00,Wunderground v.1.15,2013-05-23 12:40:00,
2013-05-23 07:49:00,75.4,71.6,29.94,East,98,0.0,1.0,88,0.00,,,0.00,Wunderground v.1.15,2013-05-23 12:49:00,
2013-05-23 07:55:00,75.4,71.6,29.94,ESE,111,0.0,1.0,88,0.00,,,0.00,Wunderground v.1.15,2013-05-23 12:55:00,
2013-05-23 08:04:00,75.6,71.8,29.95,SE,143,0.0,1.0,88,0.00,,,0.00,Wunderground v.1.15,2013-05-23 13:04:00,
2013-05-23 08:15:00,75.8,71.7,29.95,ESE,102,0.0,1.0,87,0.00,,,0.00,Wunderground v.1.15,2013-05-23 13:15:00,
2013-05-23 08:24:00,76.0,71.8,29.95,West,280,0.0,0.0,87,0.00,,,0.00,Wunderground v.1.15,2013-05-23 13:24:00,
2013-05-23 08:35:00,76.3,71.8,29.96,ESE,106,0.0,0.0,86,0.00,,,0.00,Wunderground v.1.15,2013-05-23 13:35:00,
2013-05-23 08:44:00,76.5,72.0,29.96,East,89,0.0,1.0,86,0.00,,,0.00,Wunderground v.1.15,2013-05-23 13:44:00,
2013-05-23 08:55:00,76.6,72.1,29.97,East,101,1.0,1.0,86,0.00,,,0.00,Wunderground v.1.15,2013-05-23 13:55:00,
2013-05-23 09:05:00,76.7,72.2,29.97,SSW,193,0.0,0.0,86,0.00,,,0.00,Wunderground v.1.15,2013-05-23 14:05:00,
2013-05-23 09:15:00,76.9,72.0,29.97,ESE,111,1.0,2.0,85,0.00,,,0.00,Wunderground v.1.15,2013-05-23 14:15:00,
2013-05-23 09:25:00,77.1,72.2,29.97,SE,129,1.0,3.0,85,0.00,,,0.00,Wunderground v.1.15,2013-05-23 14:25:00,
2013-05-23 09:34:00,77.4,72.5,29.97,East,94,1.0,1.0,85,0.00,,,0.00,Wunderground v.1.15,2013-05-23 14:34:00,
2013-05-23 09:45:00,77.8,72.6,29.97,ESE,105,1.0,2.0,84,0.00,,,0.00,Wunderground v.1.15,2013-05-23 14:45:00,
2013-05-23 09:54:00,78.2,72.6,29.97,ESE,121,1.0,1.0,83,0.00,,,0.00,Wunderground v.1.15,2013-05-23 14:54:00,
2013-05-23 10:00:00,78.6,73.4,29.97,East,98,1.0,1.0,84,0.00,,,0.00,Wunderground v.1.15,2013-05-23 15:00:00,
2013-05-23 10:10:00,79.5,73.2,29.97,South,186,1.0,1.0,81,0.00,,,0.00,Wunderground v.1.15,2013-05-23 15:10:00,
2013-05-23 10:19:00,79.7,73.0,29.97,East,93,2.0,2.0,80,0.00,,,0.00,Wunderground v.1.15,2013-05-23 15:19:00,
2013-05-23 10:25:00,79.8,72.7,29.97,East,98,2.0,2.0,79,0.00,,,0.00,Wunderground v.1.15,2013-05-23 15:25:00,
2013-05-23 10:34:00,80.5,73.0,29.97,SE,134,1.0,1.0,78,0.00,,,0.00,Wunderground v.1.15,2013-05-23 15:34:00,
2013-05-23 10:40:00,80.8,73.3,29.97,WSW,250,2.0,2.0,78,0.00,,,0.00,Wunderground v.1.15,2013-05-23 15:40:00,
2013-05-23 10:50:00,81.4,73.5,29.97,East,82,1.0,1.0,77,0.00,,,0.00,Wunderground v.1.15,2013-05-23 15:50:00,
2013-05-23 11:00:00,81.8,73.5,29.97,SSE,155,1.0,1.0,76,0.00,,,0.00,Wunderground v.1.15,2013-05-23 16:00:00,
2013-05-23 11:09:00,82.5,73.0,29.96,ESE,110,2.0,3.0,73,0.00,,,0.00,Wunderground v.1.15,2013-05-23 16:09:00,
2013-05-23 11:20:00,82.6,73.1,29.96,ESE,106,2.0,2.0,73,0.00,,,0.00,Wunderground v.1.15,2013-05-23 16:20:00,
2013-05-23 11:29:00,82.7,73.6,29.97,WSW,256,1.0,1.0,74,0.00,,,0.00,Wunderground v.1.15,2013-05-23 16:29:00,
2013-05-23 11:35:00,82.7,73.6,29.97,ENE,76,1.0,3.0,74,0.00,,,0.00,Wunderground v.1.15,2013-05-23 16:35:00,
2013-05-23 11:44:00,82.5,73.4,29.97,East,91,1.0,2.0,74,0.00,,,0.00,Wunderground v.1.15,2013-05-23 16:44:00,
2013-05-23 11:55:00,82.3,74.0,29.97,SSE,166,1.0,1.0,76,0.00,,,0.00,Wunderground v.1.15,2013-05-23 16:55:00,
2013-05-23 12:04:00,82.6,73.9,29.97,East,99,1.0,1.0,75,0.00,,,0.00,Wunderground v.1.15,2013-05-23 17:04:00,
2013-05-23 12:10:00,82.6,74.3,29.97,SSE,148,1.0,1.0,76,0.00,,,0.00,Wunderground v.1.15,2013-05-23 17:10:00,
2013-05-23 12:19:00,82.9,73.8,29.97,East,84,1.0,2.0,74,0.00,,,0.00,Wunderground v.1.15,2013-05-23 17:19:00,
2013-05-23 12:25:00,82.8,73.7,29.97,WNW,300,1.0,2.0,74,0.00,,,0.00,Wunderground v.1.15,2013-05-23 17:25:00,
2013-05-23 12:34:00,83.4,74.2,29.96,SE,124,2.0,4.0,74,0.00,,,0.00,Wunderground v.1.15,2013-05-23 17:34:00,
2013-05-23 12:45:00,84.5,74.5,29.96,South,176,1.0,4.0,72,0.00,,,0.00,Wunderground v.1.15,2013-05-23 17:45:00,
2013-05-23 12:54:00,86.0,74.6,29.96,East,86,1.0,3.0,69,0.00,,,0.00,Wunderground v.1.15,2013-05-23 17:54:00,
2013-05-23 13:00:00,85.9,74.1,29.96,SSE,147,1.0,1.0,68,0.00,,,0.00,Wunderground v.1.15,2013-05-23 18:00:00,
2013-05-23 13:09:00,85.7,74.4,29.96,East,83,1.0,3.0,69,0.00,,,0.00,Wunderground v.1.15,2013-05-23 18:09:00,
2013-05-23 13:15:00,85.9,74.1,29.96,SSE,148,1.0,3.0,68,0.00,,,0.00,Wunderground v.1.15,2013-05-23 18:15:00,
2013-05-23 13:25:00,86.4,74.1,29.95,SW,214,1.0,1.0,67,0.00,,,0.00,Wunderground v.1.15,2013-05-23 18:25:00,
2013-05-23 13:34:00,87.6,74.4,29.95,SE,132,1.0,1.0,65,0.00,,,0.00,Wunderground v.1.15,2013-05-23 18:34:00,
2013-05-23 13:40:00,87.8,74.6,29.95,ESE,103,1.0,1.0,65,0.00,,,0.00,Wunderground v.1.15,2013-05-23 18:40:00,
2013-05-23 13:50:00,88.2,74.9,29.95,SSW,200,1.0,4.0,65,0.00,,,0.00,Wunderground v.1.15,2013-05-23 18:50:00,
2013-05-23 14:00:00,88.6,74.4,29.94,East,81,2.0,3.0,63,0.00,,,0.00,Wunderground v.1.15,2013-05-23 19:00:00,
2013-05-23 14:09:00,89.4,75.6,29.94,WNW,284,2.0,2.0,64,0.00,,,0.00,Wunderground v.1.15,2013-05-23 19:09:00,
2013-05-23 14:15:00,90.0,74.2,29.94,SE,132,2.0,2.0,60,0.00,,,0.00,Wunderground v.1.15,2013-05-23 19:15:00,
2013-05-23 14:24:00,90.6,74.8,29.94,West,276,1.0,1.0,60,0.00,,,0.00,Wunderground v.1.15,2013-05-23 19:24:00,
2013-05-23 14:30:00,90.6,74.8,29.94,NW,316,1.0,1.0,60,0.00,,,0.00,Wunderground v.1.15,2013-05-23 19:30:00,
2013-05-23 14:39:00,90.2,73.9,29.94,ESE,122,2.0,2.0,59,0.00,,,0.00,Wunderground v.1.15,2013-05-23 19:39:00,
2013-05-23 14:50:00,89.8,74.1,29.94,East,94,2.0,2.0,60,0.00,,,0.00,Wunderground v.1.15,2013-05-23 19:50:00,
2013-05-23 14:59:00,91.2,75.9,29.93,SE,138,2.0,2.0,61,0.00,,,0.00,Wunderground v.1.15,2013-05-23 19:59:00,
2013-05-23 15:05:00,91.2,74.4,29.93,ESE,107,2.0,2.0,58,0.00,,,0.00,Wunderground v.1.15,2013-05-23 20:05:00,
2013-05-23 15:14:00,91.7,74.8,29.93,SE,133,1.0,3.0,58,0.00,,,0.00,Wunderground v.1.15,2013-05-23 20:14:00,
2013-05-23 15:20:00,91.6,73.7,29.93,ESE,113,2.0,3.0,56,0.00,,,0.00,Wunderground v.1.15,2013-05-23 20:20:00,
2013-05-23 15:30:00,92.3,74.3,29.93,SSE,159,2.0,2.0,56,0.00,,,0.00,Wunderground v.1.15,2013-05-23 20:30:00,
2013-05-23 15:40:00,93.4,73.7,29.92,ESE,120,2.0,5.0,53,0.00,,,0.00,Wunderground v.1.15,2013-05-23 20:40:00,
2013-05-23 15:49:00,93.3,74.7,29.92,SW,228,1.0,3.0,55,0.00,,,0.00,Wunderground v.1.15,2013-05-23 20:49:00,
2013-05-23 15:55:00,94.2,74.4,29.92,SE,133,1.0,3.0,53,0.00,,,0.00,Wunderground v.1.15,2013-05-23 20:55:00,
2013-05-23 16:04:00,93.1,73.4,29.91,SE,133,2.0,4.0,53,0.00,,,0.00,Wunderground v.1.15,2013-05-23 21:04:00,
2013-05-23 16:10:00,93.3,74.2,29.91,SSW,204,1.0,1.0,54,0.00,,,0.00,Wunderground v.1.15,2013-05-23 21:10:00,
2013-05-23 16:20:00,94.0,74.8,29.90,ENE,77,1.0,1.0,54,0.00,,,0.00,Wunderground v.1.15,2013-05-23 21:20:00,
2013-05-23 16:30:00,94.2,73.9,29.90,ESE,115,1.0,2.0,52,0.00,,,0.00,Wunderground v.1.15,2013-05-23 21:30:00,
2013-05-23 16:39:00,93.8,74.1,29.90,SSW,203,2.0,3.0,53,0.00,,,0.00,Wunderground v.1.15,2013-05-23 21:39:00,
2013-05-23 16:45:00,93.8,74.1,29.89,ESE,110,2.0,3.0,53,0.00,,,0.00,Wunderground v.1.15,2013-05-23 21:45:00,
2013-05-23 16:54:00,93.9,74.2,29.89,SE,124,1.0,2.0,53,0.00,,,0.00,Wunderground v.1.15,2013-05-23 21:54:00,
2013-05-23 17:05:00,94.6,74.2,29.89,SE,129,1.0,2.0,52,0.00,,,0.00,Wunderground v.1.15,2013-05-23 22:05:00,
2013-05-23 17:14:00,93.9,73.6,29.88,NNE,18,2.0,2.0,52,0.00,,,0.00,Wunderground v.1.15,2013-05-23 22:14:00,
2013-05-23 17:25:00,93.5,73.2,29.87,SE,132,2.0,2.0,52,0.00,,,0.00,Wunderground v.1.15,2013-05-23 22:25:00,
2013-05-23 17:34:00,93.4,73.7,29.87,SE,124,1.0,2.0,53,0.00,,,0.00,Wunderground v.1.15,2013-05-23 22:34:00,
2013-05-23 17:40:00,93.1,74.0,29.86,ESE,110,1.0,1.0,54,0.00,,,0.00,Wunderground v.1.15,2013-05-23 22:40:00,
2013-05-23 17:49:00,92.6,73.0,29.86,ESE,106,2.0,2.0,53,0.00,,,0.00,Wunderground v.1.15,2013-05-23 22:49:00,
2013-05-23 18:00:00,92.1,74.1,29.85,SE,134,1.0,1.0,56,0.00,,,0.00,Wunderground v.1.15,2013-05-23 23:00:00,
2013-05-23 18:09:00,91.6,73.7,29.85,East,100,2.0,2.0,56,0.00,,,0.00,Wunderground v.1.15,2013-05-23 23:09:00,
2013-05-23 18:15:00,91.6,73.7,29.85,East,101,2.0,3.0,56,0.00,,,0.00,Wunderground v.1.15,2013-05-23 23:15:00,
2013-05-23 18:24:00,90.6,73.3,29.84,East,92,2.0,2.0,57,0.00,,,0.00,Wunderground v.1.15,2013-05-23 23:24:00,
2013-05-23 18:35:00,89.7,72.4,29.84,East,86,2.0,2.0,57,0.00,,,0.00,Wunderground v.1.15,2013-05-23 23:35:00,
2013-05-23 18:44:00,89.2,72.5,29.84,East,81,2.0,2.0,58,0.00,,,0.00,Wunderground v.1.15,2013-05-23 23:44:00,
2013-05-23 18:50:00,89.1,72.4,29.83,SE,127,1.0,1.0,58,0.00,,,0.00,Wunderground v.1.15,2013-05-23 23:50:00,
2013-05-23 18:59:00,88.8,73.6,29.84,East,92,1.0,2.0,61,0.00,,,0.00,Wunderground v.1.15,2013-05-23 23:59:00,
2013-05-23 19:05:00,88.5,73.3,29.84,ESE,115,1.0,2.0,61,0.00,,,0.00,Wunderground v.1.15,2013-05-24 00:05:00,
2013-05-23 19:14:00,87.9,73.3,29.84,SE,141,2.0,2.0,62,0.00,,,0.00,Wunderground v.1.15,2013-05-24 00:14:00,
2013-05-23 19:20:00,87.7,73.5,29.84,East,82,2.0,2.0,63,0.00,,,0.00,Wunderground v.1.15,2013-05-24 00:20:00,
2013-05-23 19:29:00,87.4,73.7,29.84,SE,131,1.0,1.0,64,0.00,,,0.00,Wunderground v.1.15,2013-05-24 00:29:00,
2013-05-23 19:40:00,86.9,73.7,29.85,ESE,113,2.0,2.0,65,0.00,,,0.00,Wunderground v.1.15,2013-05-24 00:40:00,
2013-05-23 19:49:00,86.4,73.2,29.85,SE,131,2.0,2.0,65,0.00,,,0.00,Wunderground v.1.15,2013-05-24 00:49:00,
2013-05-23 19:55:00,86.2,73.5,29.86,SW,233,2.0,2.0,66,0.00,,,0.00,Wunderground v.1.15,2013-05-24 00:55:00,
2013-05-23 20:04:00,85.7,73.5,29.86,ESE,117,1.0,2.0,67,0.00,,,0.00,Wunderground v.1.15,2013-05-24 01:04:00,
2013-05-23 20:10:00,85.4,73.2,29.87,ENE,65,1.0,2.0,67,0.00,,,0.00,Wunderground v.1.15,2013-05-24 01:10:00,
2013-05-23 20:19:00,84.9,73.2,29.88,ESE,122,1.0,1.0,68,0.00,,,0.00,Wunderground v.1.15,2013-05-24 01:19:00,
2013-05-23 20:30:00,84.4,73.5,29.89,ENE,76,1.0,1.0,70,0.00,,,0.00,Wunderground v.1.15,2013-05-24 01:30:00,
2013-05-23 20:39:00,83.9,73.1,29.90,SE,130,1.0,1.0,70,0.00,,,0.00,Wunderground v.1.15,2013-05-24 01:39:00,
2013-05-23 20:45:00,83.6,73.2,29.91,SE,135,0.0,2.0,71,0.00,,,0.00,Wunderground v.1.15,2013-05-24 01:45:00,
2013-05-23 20:54:00,83.3,73.3,29.92,SE,134,1.0,1.0,72,0.00,,,0.00,Wunderground v.1.15,2013-05-24 01:54:00,
2013-05-23 21:00:00,83.1,73.1,29.93,ESE,123,1.0,1.0,72,0.00,,,0.00,Wunderground v.1.15,2013-05-24 02:00:00,
2013-05-23 21:09:00,82.7,73.2,29.93,ESE,120,1.0,1.0,73,0.00,,,0.00,Wunderground v.1.15,2013-05-24 02:09:00,
2013-05-23 21:20:00,82.3,73.2,29.94,East,96,0.0,0.0,74,0.00,,,0.00,Wunderground v.1.15,2013-05-24 02:20:00,
2013-05-23 21:29:00,81.8,73.1,29.95,SSE,148,0.0,0.0,75,0.00,,,0.00,Wunderground v.1.15,2013-05-24 02:29:00,
2013-05-23 21:35:00,81.7,73.0,29.95,SE,128,0.0,0.0,75,0.00,,,0.00,Wunderground v.1.15,2013-05-24 02:35:00,
2013-05-23 21:44:00,81.4,73.1,29.96,ESE,114,0.0,1.0,76,0.00,,,0.00,Wunderground v.1.15,2013-05-24 02:44:00,
2013-05-23 21:55:00,81.1,73.2,29.97,SE,142,0.0,0.0,77,0.00,,,0.00,Wunderground v.1.15,2013-05-24 02:55:00,
2013-05-23 22:04:00,80.7,73.2,29.98,SE,142,0.0,0.0,78,0.00,,,0.00,Wunderground v.1.15,2013-05-24 03:04:00,
2013-05-23 22:10:00,80.5,73.4,29.99,SE,143,0.0,0.0,79,0.00,,,0.00,Wunderground v.1.15,2013-05-24 03:10:00,
2013-05-23 22:19:00,80.0,73.3,30.00,SE,142,0.0,1.0,80,0.00,,,0.00,Wunderground v.1.15,2013-05-24 03:19:00,
2013-05-23 22:25:00,79.9,73.2,29.99,SE,132,0.0,1.0,80,0.00,,,0.00,Wunderground v.1.15,2013-05-24 03:25:00,
2013-05-23 22:35:00,79.8,73.4,30.00,SE,133,0.0,1.0,81,0.00,,,0.00,Wunderground v.1.15,2013-05-24 03:35:00,
2013-05-23 22:45:00,79.7,73.3,29.99,SE,136,0.0,2.0,81,0.00,,,0.00,Wunderground v.1.15,2013-05-24 03:45:00,
2013-05-23 22:54:00,79.5,73.5,30.00,SE,139,0.0,2.0,82,0.00,,,0.00,Wunderground v.1.15,2013-05-24 03:54:00,
2013-05-23 23:05:00,79.5,73.5,30.00,SE,136,1.0,1.0,82,0.00,,,0.00,Wunderground v.1.15,2013-05-24 04:05:00,
2013-05-23 23:10:00,79.5,73.5,30.00,SE,134,1.0,1.0,82,0.00,,,0.00,Wunderground v.1.15,2013-05-24 04:10:00,
2013-05-23 23:14:00,79.4,73.8,30.00,SE,145,1.0,1.0,83,0.00,,,0.00,Wunderground v.1.15,2013-05-24 04:14:00,
2013-05-23 23:20:00,79.4,73.8,30.00,SE,146,1.0,1.0,83,0.00,,,0.00,Wunderground v.1.15,2013-05-24 04:20:00,
2013-05-23 23:29:00,79.3,74.0,30.00,SE,129,1.0,1.0,84,0.00,,,0.00,Wunderground v.1.15,2013-05-24 04:29:00,
2013-05-23 23:34:00,79.2,73.9,30.00,SSE,148,1.0,1.0,84,0.00,,,0.00,Wunderground v.1.15,2013-05-24 04:34:00,
2013-05-23 23:40:00,79.1,73.8,30.00,SSE,152,1.0,2.0,84,0.00,,,0.00,Wunderground v.1.15,2013-05-24 04:40:00,
2013-05-23 23:49:00,78.9,74.0,30.00,SE,139,1.0,1.0,85,0.00,,,0.00,Wunderground v.1.15,2013-05-24 04:49:00,
2013-05-23 23:55:00,78.8,73.9,30.01,East,86,1.0,1.0,85,0.00,,,0.00,Wunderground v.1.15,2013-05-24 04:55:00,